[[{"header":{"parameterUnit":"m.s-1","parameterCategory":1,"la1":30.2991,"la2":30.254,"lo1":-89.0895,"lo2":-89.0444,"dy":0.0017,"dx":0.0017,"nx":28,"ny":28,"refTime":"2024-05-30T09:00:00:Z","depth":0,"parameterNumber":2,"parameterNumberName":"U-component_of_WINDS"},"data":[0,0,0,0,0,0,0,0,0,0,0,0,0,0,0,0,0,0,0,0,0,0,0,0,0,0,0,0,0,0,0,0,0,0,0,0,0,0,0,0,0,0,0,0,0,0,0,0,0,0,0,0,0,0,0,0,0,0,-2.2788,-2.2787,0,-2.2726,-2.2725,-2.2724,-2.2599,-2.2597,-2.2594,-2.2592,-2.2531,-2.2531,-2.2532,0,0,0,0,0,0,0,0,0,0,0,0,0,-2.28,-2.2801,-2.2788,-2.2787,-2.2787,-2.2726,-2.2725,-2.2724,-2.26,-2.2597,-2.2594,-2.2591,-2.2531,-2.2531,-2.2532,0,0,0,0,0,0,0,0,0,0,0,0,0,-2.2773,-2.2801,-2.2788,-2.2717,-2.271,-2.2726,-2.2725,-2.2724,-2.26,-2.2596,-2.2593,-2.2589,-2.253,-2.2531,-2.2532,-2.2613,0,0,-2.2535,-2.2536,0,0,0,0,0,0,0,0,-2.2774,-2.2772,-2.2728,-2.2722,-2.2714,-2.2666,-2.2707,-2.2687,-2.2601,-2.2642,-2.2592,-2.2587,-2.2579,-2.2576,-2.2572,-2.2611,-2.2608,-2.2536,-2.2536,-2.2537,-2.2537,0,0,0,0,0,0,0,-2.2776,-2.2774,-2.2763,-2.2728,-2.2719,-2.2688,-2.268,-2.2702,-2.2632,-2.2638,-2.2629,-2.2623,-2.2574,-2.2572,-2.257,-2.2607,-2.2536,-2.2536,-2.2537,-2.2538,-2.2707,-2.271,0,0,0,0,0,0,-2.2788,-2.2777,-2.2765,-2.2762,-2.2735,-2.2691,-2.2682,-2.2686,-2.2632,-2.262,-2.2626,-2.2617,-2.2572,-2.2569,-2.2568,-2.2658,-2.2537,-2.2538,-2.2538,-2.2703,-2.2708,-2.2712,0,0,0,0,0,0,-2.2789,-2.2789,-2.2768,-2.2767,-2.2761,-2.2695,-2.27,-2.2686,-2.2683,-2.2623,-2.261,-2.2636,-2.2569,-2.2566,-2.2602,-2.2654,-2.2538,-2.2539,-2.2698,-2.2704,-2.271,-2.2841,0,0,0,0,0,0,-2.279,-2.279,-2.282,-2.2768,-2.2762,-2.2804,-2.2703,-2.2688,-2.2685,-2.2673,-2.2629,-2.2618,-2.2566,-2.2601,-2.2603,-2.2654,-2.254,-2.2693,-2.2701,-2.2708,-2.2832,-2.2851,-2.2867,0,0,0,0,0,-2.2791,-2.286,-2.2822,-2.2821,-2.2798,-2.2808,-2.2804,-2.2742,-2.269,-2.272,-2.268,-2.2619,-2.2648,-2.2606,-2.2607,-2.2659,-2.269,-2.2699,-2.2707,-2.2824,-2.2847,-2.2866,0,0,0,0,0,0,-2.2922,-2.2852,-2.2809,-2.2864,-2.2842,-2.2786,-2.2822,-2.2768,-2.2762,-2.2751,-2.2674,-2.2666,-2.2712,-2.2689,-2.2643,-2.2733,-2.2659,-2.2669,-2.2748,-2.2769,-2.2786,-2.2791,-2.2541,0,0,0,0,0,-2.2956,-2.2969,-2.2908,-2.2962,-2.2953,-2.289,-2.2892,-2.2845,-2.282,-2.2811,-2.2774,-2.2753,-2.2757,-2.2761,-2.2761,-2.2827,-2.2815,-2.2863,-2.288,-2.2895,-2.2904,-2.2936,-2.2956,-2.274,-2.274,-2.274,0,0,-2.3029,-2.2993,-2.3006,-2.2987,-2.2965,-2.298,-2.2883,-2.2904,-2.2914,-2.2814,-2.2846,-2.2818,-2.2789,-2.284,-2.2861,-2.2822,-2.2961,-2.2906,-2.2918,-2.292,-2.2947,-2.2968,-2.2986,-2.2746,-2.2745,-2.2744,0,0,-2.317,-2.3144,-2.3185,-2.3164,-2.3131,-2.3088,-2.3098,-2.305,-2.3027,-2.3057,-2.2982,-2.2993,-2.3002,-2.2984,-2.2976,-2.3107,-2.3051,-2.3109,-2.3201,-2.3233,-2.325,-2.3265,-2.3312,-2.3329,-2.3119,-2.3119,-2.3119,0,-2.3265,-2.3284,-2.3214,-2.3238,-2.3232,-2.314,-2.3182,-2.3165,-2.3135,-2.3133,-2.3089,-2.3097,-2.3071,-2.3116,-2.3148,-2.3144,-2.3153,-2.3115,-2.3253,-2.3267,-2.328,-2.3324,-2.3342,-2.3126,-2.3126,-2.3125,-2.3124,0,-2.3402,-2.3417,-2.3454,-2.3426,-2.3423,-2.3457,-2.3391,-2.3397,-2.335,-2.3312,-2.3343,-2.3308,-2.33,-2.3306,-2.3262,-2.3345,-2.3322,-2.3267,-2.3191,-2.3309,-2.3349,-2.3365,-2.3137,-2.3134,-2.3132,-2.313,0,0,-2.3626,-2.3556,-2.3571,-2.3556,-2.3512,-2.3522,-2.355,-2.354,-2.3547,-2.3528,-2.355,-2.3558,-2.3506,-2.3497,-2.3449,-2.3477,-2.3582,-2.3418,-2.3416,-2.345,-2.3672,-2.3714,-2.3734,-2.3544,-2.3547,-2.3549,-2.3674,0,-2.3757,-2.3801,-2.3738,-2.3797,-2.3808,-2.372,-2.3744,-2.372,-2.3684,-2.3689,-2.3649,-2.3656,-2.3587,-2.3581,-2.3605,-2.3565,-2.3626,-2.3555,-2.3564,-2.3565,-2.3575,-2.3755,-2.38,-2.392,-2.3689,-2.3692,-2.3693,0,-2.3917,-2.3904,-2.3964,-2.3914,-2.3917,-2.394,-2.3925,-2.393,-2.39,-2.3872,-2.3861,-2.3803,-2.3827,-2.3752,-2.3784,-2.3737,-2.3736,-2.3717,-2.372,-2.3719,-2.3638,-2.376,-2.3957,-2.3975,-2.3717,-2.3715,-2.3714,0,-2.4075,-2.4073,-2.4107,-2.4097,-2.404,-2.4058,-2.4035,-2.4001,-2.3998,-2.3985,-2.3982,-2.3973,-2.3968,-2.3961,-2.3902,-2.3853,-2.3941,-2.3861,-2.3918,-2.392,-2.3942,-2.3942,-2.4143,-2.3941,-2.3941,-2.394,-2.394,0,-2.4229,-2.4269,-2.4177,-2.4199,-2.4241,-2.4166,-2.421,-2.4178,-2.4148,-2.4162,-2.4084,-2.4099,-2.4019,-2.4025,-2.3978,-2.4012,-2.401,-2.3988,-2.3975,-2.3996,-2.3999,-2.3995,-2.3986,-2.3945,-2.3944,-2.3943,-2.3942,0,-2.4413,-2.4353,-2.4385,-2.4327,-2.4313,-2.4347,-2.4297,-2.4315,-2.4272,-2.4291,-2.4291,-2.4225,-2.4228,-2.4167,-2.4159,-2.4127,-2.4181,-2.4153,-2.4192,-2.4183,-2.4244,-2.4239,-2.445,-2.4474,-2.4257,-2.4259,-2.4261,0,-2.4516,-2.4544,-2.4488,-2.4491,-2.4472,-2.4478,-2.4474,-2.4401,-2.4401,-2.4367,-2.4389,-2.4385,-2.4378,-2.4386,-2.4338,-2.4331,-2.4302,-2.4377,-2.4301,-2.432,-2.4304,-2.4303,-2.4305,-2.4393,-2.4396,-2.4398,-2.44,0,-2.4704,-2.4673,-2.467,-2.4656,-2.4654,-2.464,-2.4621,-2.4628,-2.4548,-2.4552,-2.4553,-2.4547,-2.4537,-2.4534,-2.4516,-2.4493,-2.4434,-2.4424,-2.4437,-2.4458,-2.4479,-2.4469,-2.4236,-2.442,-2.4418,-2.4417,-2.4415,-2.4415,-2.4851,-2.4871,-2.4835,-2.4834,-2.4811,-2.4795,-2.4808,-2.4767,-2.4766,-2.4751,-2.4708,-2.4717,-2.4683,-2.4654,-2.4635,-2.4641,-2.4604,-2.4623,-2.4627,-2.4634,-2.4645,-2.4478,-2.4637,-2.4636,-2.4636,-2.4635,-2.4635,0,-2.5036,-2.5007,-2.5007,-2.4982,-2.4981,-2.4923,-2.4899,-2.4902,-2.491,-2.4883,-2.4877,-2.4878,-2.4874,-2.4825,-2.4815,-2.4828,-2.4801,-2.4828,-2.4827,-2.4823,-2.4678,-2.4668,-2.4851,-2.4851,-2.4851,-2.4851,-2.4851,-2.4851,-2.5132,-2.5164,-2.5127,-2.5146,-2.5117,-2.5124,-2.5115,-2.5099,-2.5077,-2.5081,-2.5077,-2.5044,-2.5008,-2.4994,-2.4988,-2.4973,-2.4974,-2.501,-2.4987,-2.4854,-2.4833,-2.4813,-2.4803,-2.5011,-2.5011,-2.5131,-2.5132,-2.5133]},{"header":{"parameterUnit":"m.s-1","parameterCategory":1,"la1":30.2991,"la2":30.254,"lo1":-89.0895,"lo2":-89.0444,"dy":0.0017,"dx":0.0017,"nx":28,"ny":28,"refTime":"2024-05-30T09:00:00:Z","depth":0,"parameterNumber":3,"parameterNumberName":"V-component_of_WINDS"},"data":[0,0,0,0,0,0,0,0,0,0,0,0,0,0,0,0,0,0,0,0,0,0,0,0,0,0,0,0,0,0,0,0,0,0,0,0,0,0,0,0,0,0,0,0,0,0,0,0,0,0,0,0,0,0,0,0,0,0,-3.2655,-3.2656,0,-3.2711,-3.2711,-3.2712,-3.2687,-3.2686,-3.2684,-3.2683,-3.2736,-3.2738,-3.2741,0,0,0,0,0,0,0,0,0,0,0,0,0,-3.2524,-3.2526,-3.2655,-3.2656,-3.2657,-3.2711,-3.2711,-3.2712,-3.2687,-3.2686,-3.2684,-3.2683,-3.2735,-3.2738,-3.2741,0,0,0,0,0,0,0,0,0,0,0,0,0,-3.258,-3.2527,-3.2655,-3.2651,-3.2651,-3.271,-3.2711,-3.2712,-3.2688,-3.2686,-3.2684,-3.2682,-3.2734,-3.2738,-3.2742,-3.2807,0,0,-3.2754,-3.2756,0,0,0,0,0,0,0,0,-3.2577,-3.2585,-3.2651,-3.2651,-3.2652,-3.269,-3.2684,-3.2744,-3.2688,-3.2674,-3.2683,-3.2681,-3.2722,-3.2727,-3.2742,-3.281,-3.2812,-3.2754,-3.2757,-3.2758,-3.276,0,0,0,0,0,0,0,-3.2573,-3.2582,-3.2677,-3.2652,-3.2652,-3.2645,-3.2651,-3.2695,-3.2708,-3.2675,-3.2673,-3.268,-3.2722,-3.2738,-3.2743,-3.2813,-3.2754,-3.2758,-3.276,-3.2762,-3.2936,-3.2939,0,0,0,0,0,0,-3.257,-3.2579,-3.2675,-3.2679,-3.2609,-3.2649,-3.2655,-3.268,-3.2708,-3.271,-3.2682,-3.2679,-3.2732,-3.2738,-3.2744,-3.2822,-3.2758,-3.2762,-3.2764,-3.2934,-3.2937,-3.2939,0,0,0,0,0,0,-3.2567,-3.2579,-3.2673,-3.2629,-3.264,-3.2653,-3.2681,-3.2682,-3.2698,-3.2713,-3.2715,-3.2696,-3.2731,-3.2739,-3.2792,-3.2824,-3.2764,-3.2768,-3.2932,-3.2935,-3.2938,-3.2979,0,0,0,0,0,0,-3.2563,-3.2578,-3.2604,-3.2629,-3.2643,-3.2721,-3.2683,-3.2684,-3.2705,-3.2702,-3.2727,-3.2729,-3.273,-3.2786,-3.2796,-3.2828,-3.2771,-3.2929,-3.2933,-3.2937,-3.2975,-3.2984,-3.2991,0,0,0,0,0,-3.2559,-3.2612,-3.2605,-3.2617,-3.2676,-3.2723,-3.273,-3.2731,-3.2708,-3.2734,-3.2743,-3.2729,-3.2819,-3.2792,-3.2803,-3.2837,-3.2927,-3.2932,-3.2937,-3.2972,-3.2982,-3.2991,0,0,0,0,0,0,-3.2588,-3.2616,-3.2608,-3.2672,-3.2696,-3.2719,-3.2751,-3.2742,-3.2771,-3.2766,-3.2764,-3.277,-3.2825,-3.2836,-3.2805,-3.2901,-3.2869,-3.2877,-3.2892,-3.2902,-3.291,-3.2906,-3.2774,0,0,0,0,0,-3.2603,-3.264,-3.2661,-3.2716,-3.2728,-3.2738,-3.2758,-3.2757,-3.278,-3.279,-3.2804,-3.2826,-3.2859,-3.2881,-3.2913,-3.2977,-3.2981,-3.3006,-3.3014,-3.302,-3.3026,-3.306,-3.3071,-3.2956,-3.2956,-3.2956,0,0,-3.2632,-3.2651,-3.2675,-3.2722,-3.274,-3.2778,-3.2746,-3.2787,-3.2815,-3.2795,-3.2847,-3.2858,-3.2883,-3.2942,-3.2968,-3.2952,-3.3059,-3.3026,-3.3031,-3.3034,-3.3066,-3.3077,-3.3087,-3.2959,-3.2959,-3.2958,0,0,-3.2704,-3.2724,-3.2771,-3.279,-3.2818,-3.2824,-3.2836,-3.2861,-3.2868,-3.2919,-3.2906,-3.2938,-3.2995,-3.3014,-3.303,-3.311,-3.3097,-3.3121,-3.3162,-3.3195,-3.3204,-3.3212,-3.324,-3.325,-3.3127,-3.3127,-3.3127,0,-3.2737,-3.2795,-3.2796,-3.2838,-3.2859,-3.2845,-3.2892,-3.291,-3.2946,-3.296,-3.2943,-3.3015,-3.3031,-3.3093,-3.3113,-3.3127,-3.3139,-3.3117,-3.3203,-3.3211,-3.3218,-3.3245,-3.3255,-3.313,-3.3129,-3.3129,-3.3129,0,-3.2832,-3.2873,-3.2907,-3.2945,-3.2969,-3.3014,-3.302,-3.3044,-3.3041,-3.3048,-3.3101,-3.3119,-3.3154,-3.3169,-3.3165,-3.3231,-3.322,-3.3203,-3.3171,-3.3232,-3.3257,-3.3267,-3.3133,-3.3132,-3.3132,-3.3131,0,0,-3.2925,-3.2963,-3.2975,-3.2992,-3.3023,-3.3053,-3.3096,-3.3132,-3.3153,-3.3178,-3.3214,-3.3263,-3.3247,-3.3267,-3.3265,-3.3294,-3.3355,-3.3273,-3.3273,-3.3287,-3.3428,-3.3441,-3.3453,-3.3347,-3.3349,-3.3351,-3.3426,0,-3.2999,-3.3077,-3.3079,-3.315,-3.3186,-3.3173,-3.3211,-3.3233,-3.3241,-3.3272,-3.3281,-3.3316,-3.3292,-3.3304,-3.3332,-3.3342,-3.3383,-3.3336,-3.3379,-3.338,-3.3373,-3.3466,-3.3479,-3.3549,-3.3435,-3.3437,-3.3438,0,-3.3096,-3.3127,-3.3201,-3.3227,-3.3242,-3.3276,-3.3309,-3.3339,-3.3363,-3.3367,-3.3389,-3.3383,-3.3426,-3.3393,-3.3451,-3.3419,-3.3436,-3.3444,-3.3446,-3.345,-3.3413,-3.3471,-3.3572,-3.3582,-3.3454,-3.3452,-3.3451,0,-3.3155,-3.3215,-3.3267,-3.3282,-3.3313,-3.3337,-3.3351,-3.3373,-3.3394,-3.3422,-3.3436,-3.3468,-3.3486,-3.351,-3.3512,-3.3488,-3.3571,-3.3538,-3.3574,-3.3574,-3.3592,-3.3591,-3.3696,-3.3604,-3.3604,-3.3604,-3.3604,0,-3.3238,-3.3284,-3.3294,-3.3326,-3.3377,-3.3379,-3.3428,-3.344,-3.346,-3.3493,-3.3484,-3.3514,-3.3516,-3.3547,-3.3549,-3.3597,-3.3605,-3.3608,-3.3608,-3.3609,-3.3608,-3.3619,-3.3614,-3.3607,-3.3606,-3.3606,-3.3605,0,-3.3312,-3.3321,-3.3377,-3.3402,-3.341,-3.3446,-3.3467,-3.3497,-3.3504,-3.3546,-3.3556,-3.3567,-3.3604,-3.3609,-3.3651,-3.3652,-3.3709,-3.3704,-3.3701,-3.37,-3.3736,-3.3732,-3.3852,-3.3867,-3.3766,-3.3767,-3.3768,0,-3.3364,-3.3399,-3.3428,-3.3451,-3.3466,-3.3502,-3.3524,-3.3527,-3.355,-3.358,-3.3606,-3.3642,-3.3671,-3.3729,-3.374,-3.3772,-3.3767,-3.3807,-3.3772,-3.3772,-3.3767,-3.3765,-3.3768,-3.3814,-3.3815,-3.3816,-3.3817,0,-3.3454,-3.3457,-3.349,-3.3525,-3.3552,-3.3579,-3.3604,-3.3623,-3.3628,-3.3655,-3.3693,-3.3715,-3.3759,-3.3794,-3.3826,-3.3838,-3.3828,-3.3828,-3.3838,-3.3838,-3.3835,-3.3837,-3.3719,-3.3825,-3.3824,-3.3823,-3.3823,-3.3822,-3.3518,-3.3549,-3.3575,-3.3612,-3.3631,-3.3656,-3.3685,-3.3697,-3.3729,-3.3766,-3.3765,-3.3807,-3.3829,-3.3871,-3.3886,-3.3918,-3.3904,-3.3919,-3.3922,-3.3926,-3.3929,-3.3831,-3.3923,-3.3923,-3.3923,-3.3923,-3.3923,0,-3.3608,-3.3624,-3.3658,-3.3695,-3.3724,-3.3714,-3.3741,-3.3765,-3.3803,-3.3826,-3.3854,-3.3898,-3.3932,-3.3946,-3.3979,-3.4002,-3.3998,-3.401,-3.4008,-3.4011,-3.3939,-3.3927,-3.4013,-3.4013,-3.4013,-3.4013,-3.4013,-3.4013,-3.3658,-3.3709,-3.3715,-3.3776,-3.3791,-3.3833,-3.385,-3.3871,-3.389,-3.3939,-3.3968,-3.3978,-3.3997,-3.4031,-3.4062,-3.4065,-3.4077,-3.4092,-3.4093,-3.4025,-3.4016,-3.4007,-3.3996,-3.4095,-3.4095,-3.4162,-3.4162,-3.4163]}]]